Weather History for East Milton, MA

Change the Weather History Date:

Monday, October 7, 2013

  Actual Average (KBOS) Record (KBOS)
Temperature  
Mean Temperature 65 °F 57 °F  
Max Temperature 75 °F 65 °F 90 °F (1963)
Min Temperature 57 °F 49 °F 30 °F (1883)
Degree Days  
Heating Degree Days 0 9  
Month to date heating degree days 54  
Since 1 July heating degree days 151  
Cooling Degree Days 0 0  
Month to date cooling degree days 6  
Year to date cooling degree days 746  
Growing Degree Days 15 (Base 50)    
Moisture  
Dew Point 64 °F    
Average Humidity 93    
Maximum Humidity 100    
Minimum Humidity 76    
Precipitation  
Precipitation 0.07 in 0.13 in 2.30 in (1875)
Month to date precipitation 0.90  
Year to date precipitation 32.96  
Sea Level Pressure  
Sea Level Pressure 29.98 in    
Wind  
Wind Speed 15 mph (South)    
Max Wind Speed 34 mph    
Max Gust Speed 50 mph    
T = Trace of Precipitation, MM = Missing Value Source: NWS Daily Summary

Daily Weather History Graph

Daily Weather History Graph

Search for Another Location

Airport:

Trip Planner

Search our weather history database for the weather conditions in past years. The results will help you decide how hot, cold, wet, or windy it might be!

Date:

Astronomy

Oct. 07, 2013 Rise Set
Actual Time 6:48 AM EDT 6:15 PM EDT
Civil Twilight 6:20 AM EDT 6:43 PM EDT
Nautical Twilight 5:47 AM EDT 7:15 PM EDT
Astronomical Twilight 5:15 AM EDT 7:48 PM EDT
Moon 9:38 AM EDT (10/7) 7:54 PM EDT (10/7)
Length of Visible Light 12h 23m
Length of Day
11h 27m
Waxing Crescent, 8% of the Moon is Illuminated
Oct 7
Waxing Crescent
Oct 11
First Quarter
Oct 18
Full
Oct 26
Last Quarter
Nov 3
New

Hourly Weather History & Observations

Time (EDT) Temp. Dew Point Humidity Pressure Visibility Wind Dir Wind Speed Gust Speed Precip Events Conditions
12:54 AM 57.0 °F 57.0 °F 100% 30.14 in - SE 10.4 mph - N/A   Unknown
1:54 AM 57.9 °F 57.9 °F 100% 30.13 in - SE 6.9 mph - N/A   Unknown
2:54 AM 59.0 °F 59.0 °F 100% 30.11 in - SE 8.1 mph - N/A   Unknown
3:54 AM 60.1 °F 60.1 °F 100% 30.09 in - SSE 10.4 mph - N/A   Unknown
4:54 AM 61.0 °F 61.0 °F 100% 30.09 in - SSE 11.5 mph - N/A   Unknown
5:54 AM 62.1 °F 62.1 °F 100% 30.08 in - South 12.7 mph - N/A   Unknown
6:54 AM 63.0 °F 63.0 °F 100% 30.07 in - South 13.8 mph - N/A   Unknown
7:54 AM 64.9 °F 64.0 °F 97% 30.07 in - SSE 13.8 mph 24.2 mph N/A   Unknown
8:54 AM 66.0 °F 66.0 °F 100% 30.06 in - SSE 12.7 mph - N/A   Unknown
9:54 AM 68.0 °F 68.0 °F 100% 30.04 in - SSE 12.7 mph 20.7 mph 0.05 in   Unknown
10:54 AM 69.1 °F 69.1 °F 100% 30.01 in - South 16.1 mph 27.6 mph N/A   Unknown
11:54 AM 72.0 °F 69.1 °F 91% 29.99 in - South 16.1 mph 32.2 mph N/A   Unknown
12:54 PM 73.0 °F 66.9 °F 81% 29.95 in - South 20.7 mph 31.1 mph N/A   Unknown
1:54 PM 73.9 °F 66.0 °F 76% 29.92 in - South 28.8 mph 39.1 mph N/A   Unknown
2:54 PM 73.0 °F 66.0 °F 79% 29.89 in - South 29.9 mph 48.3 mph N/A   Unknown
3:54 PM 73.0 °F 66.0 °F 79% 29.88 in - South 34.5 mph 49.5 mph N/A   Unknown
4:54 PM 72.0 °F 66.0 °F 81% 29.87 in - South 24.2 mph 42.6 mph N/A   Unknown
5:54 PM 71.1 °F 66.9 °F 87% 29.88 in - South 19.6 mph 43.7 mph N/A   Unknown
6:54 PM 70.0 °F 66.9 °F 90% 29.87 in - South 26.5 mph 44.9 mph N/A   Unknown
7:54 PM 70.0 °F 66.0 °F 87% 29.88 in - South 25.3 mph 38.0 mph N/A   Unknown
8:54 PM 68.0 °F 66.9 °F 96% 29.87 in - South 19.6 mph 33.4 mph 0.01 in   Unknown
9:54 PM 66.9 °F 64.9 °F 93% 29.88 in - SW 18.4 mph 25.3 mph N/A   Unknown
10:54 PM 60.1 °F 59.0 °F 96% 29.92 in - NW 13.8 mph 25.3 mph 0.01 in   Unknown
11:54 PM 57.9 °F 55.0 °F 90% 29.93 in - WNW 12.7 mph 21.9 mph N/A   Unknown